Regional Weather Roundup
Issued by NWS Charleston, WV

Current Version | Previous Version | Text Only | Print | Product List | Glossary On
Versions: 1 2 3 4 5 6 7 8 9 10 11 12 13 14 15 16 17 18 19 20 21 22 23 24 25 26 27 28 29 30 31 32 33 34 35 36 37 38 39 40 41 42 43 44 45 46 47 48 49 50
000
ASUS41 KRLX 230010
RWRRLX
Regional Weather Roundup
National Weather Service Charleston WV
700 PM EST FRI FEB 22 2019

Note: "fair" indicates few or no clouds below 12,000 feet with no
significant weather and/or obstructions to visibility.

WVZ003-230100-
Northern Panhandle of West Virginia

CITY           SKY/WX    TMP DP  RH WIND       PRES   REMARKS
WHEELING       FAIR      39  24  55 E5        30.36S
$$

WVZ009-230100-
Northwest West Virginia

CITY           SKY/WX    TMP DP  RH WIND       PRES   REMARKS
PARKERSBURG    FAIR      43  25  49 E5        30.39R
$$

WVZ006-230100-
Western West Virginia

CITY           SKY/WX    TMP DP  RH WIND       PRES   REMARKS
HUNTINGTON     CLOUDY    43  27  53 NE8       30.31F
$$

WVZ015-230100-
West Central West Virginia

CITY           SKY/WX    TMP DP  RH WIND       PRES   REMARKS
CHARLESTON     LGT RAIN  44  30  57 NE5       30.33R
$$

WVZ022-031-230100-
North Central West Virginia

CITY           SKY/WX    TMP DP  RH WIND       PRES   REMARKS
MORGANTOWN     FAIR      40  26  57 CALM      30.37R
CLARKSBURG     FAIR      41  28  60 N7        30.36R
BUCKHANNON     FAIR      41  25  52 N6        30.35R
$$

WVZ025-035-042-045-230100-
Southern West Virginia

CITY           SKY/WX    TMP DP  RH WIND       PRES   REMARKS
BECKLEY        LGT RAIN  44  42  93 VRB7      30.28R
LOGAN          CLOUDY    41  41 100 NE7       30.29R
PINEVILLE      LGT RAIN  47  46  98 MISG      30.32S
BLUEFIELD      LGT RAIN  43  40  89 VRB5      30.27F
LEWISBURG      LGT RAIN  43  42  97 CALM      30.34R
$$

WVZ047-230100-
Northern Mountains of West Virginia

CITY           SKY/WX    TMP DP  RH WIND       PRES   REMARKS
ELKINS         FAIR      41  26  55 CALM      30.33R
$$

WVZ052-230100-
Eastern Panhandle of West Virginia

CITY           SKY/WX    TMP DP  RH WIND       PRES   REMARKS
MARTINSBURG    FAIR      38  28  67 CALM      30.40S
PETERSBURG     FAIR      38  33  81 CALM      30.39R
$$

Southeast Ohio/Northeast Kentucky

CITY           SKY/WX    TMP DP  RH WIND       PRES   REMARKS
ATHENS         FAIR      41  30  65 NE3       30.36R
ASHLAND        CLOUDY    44  27  51 VRB5      30.33F
$$



USA.gov is the U.S. government's official web portal to all federal, state and local government web resources and services.